This demonstration page uses our WeatherBlox Daily Observations layout. Learn more.

38.80484, -77.04692

Hourly Observations for January 20, 2021

Temp ( °F °C ) Dew Point ( °F °C ) Humidity (%) Winds ( mph kmh ) Pressure ( in mb ) Visibility ( mi km ) Precip ( " mm )
12:52 am 00:52 Cloudy 35 1.7 27 -2.8 72 72 Calm 30.04 1017 10 16.0934 0 0
1:52 am 01:52 Cloudy 36 2.2 29 -1.7 76 76 SSW 6 9 30.01 1016 10 16.0934 0 0
2:52 am 02:52 Cloudy 39 3.9 29 -1.7 67 67 S 10 17 29.96 1015 10 16.0934 0 0
3:52 am 03:52 Cloudy 40 4.4 27 -2.8 60 60 Calm 29.93 1014 10 16.0934 0 0
4:52 am 04:52 Cloudy 39 3.9 26 -3.3 60 60 NNW 5 7 29.96 1014 10 16.0934 0 0
5:52 am 05:52 Partly Cloudy 39 3.9 29 -1.7 67 67 WSW 7 11 29.96 1015 10 16.0934 0.001 0.001
6:52 am 06:52 Partly Cloudy 41 5 28 -2.2 60 60 WNW 14 22 29.99 1016 10 16.0934 0.001 0.001
7:52 am 07:52 Sunny 41 5 23 -5 49 49 WNW 10 17 30.01 1016 10 16.0934 0 0
8:52 am 08:52 Partly Cloudy 43 6.1 24 -4.4 47 47 WNW 10 17 30.04 1017 10 16.0934 0 0
9:52 am 09:52 Cloudy 42 5.6 24 -4.4 49 49 WNW 15 24 30.06 1018 10 16.0934 0 0
10:52 am 10:52 Mostly Cloudy 42 5.6 24 -4.4 49 49 WNW 15 24 30.07 1018 10 16.0934 0 0
11:52 am 11:52 Mostly Cloudy 42 5.6 23 -5 47 47 NW 20 31 30.07 1018 10 16.0934 0 0
12:52 pm 12:52 Mostly Cloudy 43 6.1 22 -5.6 43 43 WNW 21 33 30.05 1018 10 16.0934 0 0
1:52 pm 13:52 Mostly Cloudy 45 7.2 18 -7.8 34 34 NW 28 44 30.05 1018 10 16.0934 0 0
2:52 pm 14:52 Mostly Cloudy 44 6.7 18 -7.8 35 35 WNW 20 31 30.08 1019 10 16.0934 0 0
3:52 pm 15:52 Partly Cloudy 43 6.1 17 -8.3 35 35 NW 18 30 30.09 1019 10 16.0934 0 0
4:52 pm 16:52 Partly Cloudy 40 4.4 17 -8.3 40 40 NNW 16 26 30.12 1020 10 16.0934 0 0
5:52 pm 17:52 Partly Cloudy 38 3.3 15 -9.4 39 39 NW 12 19 30.13 1020 10 16.0934 0 0
6:52 pm 18:52 Mostly Cloudy 36 2.2 15 -9.4 42 42 NW 6 9 30.13 1020 10 16.0934 0 0
7:52 pm 19:52 Mostly Cloudy 33 0.6 16 -8.9 49 49 N 8 13 30.11 1020 10 16.0934 0 0
8:52 pm 20:52 Mostly Cloudy 34 1.1 16 -8.9 48 48 NNW 6 9 30.11 1020 10 16.0934 0 0
9:52 pm 21:52 Mostly Cloudy 34 1.1 14 -10 44 44 NW 6 9 30.13 1020 10 16.0934 0 0
10:52 pm 22:52 Mostly Clear 32 0 15 -9.4 50 50 NW 6 9 30.11 1020 10 16.0934 0 0
11:52 pm 23:52 Clear 31 -0.6 20 -6.7 64 64 ESE 5 7 30.07 1018 10 16.0934 0 0

Powered by AerisWeather